"Sample Date","Sample Time","Sample Value","Units","Flow Rate","Sample Interval","Number Channels","Micron Size 0","Counts/Channel 0","Micron Size 1","Counts/Channel 1","Micron Size 2","Counts/Channel 2","Micron Size 3","Counts/Channel 3","Micron Size 4","Counts/Channel 4","Micron Size 5","Counts/Channel 5","Micron Size 6","Counts/Channel 6","Micron Size 7","Counts/Channel 7","Micron Size 8","Counts/Channel 8","Micron Size 9","Counts/Channel 9","Micron Size 10","Counts/Channel 10","Micron Size 11","Counts/Channel 11","Micron Size 12","Counts/Channel 12","Micron Size 13","Counts/Channel 13","Micron Size 14","Counts/Channel 14","Micron Size 15","Counts/Channel 15","Micron Size 16","Counts/Channel 16","Micron Size 17","Counts/Channel 17","Micron Size 18","Counts/Channel 18","Micron Size 19","Counts/Channel 19","Micron Size 20","Counts/Channel 20","Micron Size 21","Counts/Channel 21","Micron Size 22","Counts/Channel 22","Micron Size 23","Counts/Channel 23","Micron Size 24","Counts/Channel 24","Micron Size 25","Counts/Channel 25","Micron Size 26","Counts/Channel 26","Micron Size 27","Counts/Channel 27","Micron Size 28","Counts/Channel 28","Micron Size 29","Counts/Channel 29","Micron Size 30","Counts/Channel 30","Micron Size 31","Counts/Channel 31"
"03/11/08","02:00:00",42463.000,"cc",28488.012,6.00,6,0.100,33675.000,0.200,4321.000,0.300,1756.000,0.500,1986.000,1.000,725.000,5.000,0
"03/11/08","02:00:06",42333.000,"cc",28350.887,6.00,6,0.100,33322.000,0.200,4475.000,0.300,1772.000,0.500,2048.000,1.000,716.000,5.000,0
"03/11/08","02:00:12",42219.000,"cc",28395.941,6.00,6,0.100,33329.000,0.200,4420.000,0.300,1786.000,0.500,2041.000,1.000,643.000,5.000,0
"03/11/08","02:00:18",41296.000,"cc",28381.473,6.00,6,0.100,32792.000,0.200,4293.000,0.300,1690.000,0.500,1868.000,1.000,653.000,5.000,0
"03/11/08","02:00:24",40897.000,"cc",28388.465,6.00,6,0.100,32582.000,0.200,4139.000,0.300,1586.000,0.500,1932.000,1.000,657.000,5.000,1.000
"03/11/08","02:00:30",40267.000,"cc",28291.033,6.00,6,0.100,31775.000,0.200,4219.000,0.300,1614.000,0.500,1973.000,1.000,686.000,5.000,0
"03/11/08","02:00:36",39361.000,"cc",28356.406,6.00,6,0.100,31203.000,0.200,4108.000,0.300,1561.000,0.500,1846.000,1.000,643.000,5.000,0
"03/11/08","02:00:42",40341.000,"cc",28261.227,6.00,6,0.100,32147.000,0.200,4226.000,0.300,1558.000,0.500,1757.000,1.000,653.000,5.000,0
"03/11/08","02:00:48",39981.000,"cc",28144.844,6.00,6,0.100,31674.000,0.200,4187.000,0.300,1657.000,0.500,1799.000,1.000,664.000,5.000,0
"03/11/08","02:00:54",40283.000,"cc",28365.961,6.00,6,0.100,31862.000,0.200,4156.000,0.300,1635.000,0.500,1951.000,1.000,679.000,5.000,0
"03/11/08","02:01:00",40759.000,"cc",28215.961,6.00,6,0.100,32095.000,0.200,4344.000,0.300,1699.000,0.500,1969.000,1.000,652.000,5.000,0
"03/11/08","02:01:06",39533.000,"cc",28282.322,6.00,6,0.100,31265.000,0.200,4157.000,0.300,1616.000,0.500,1831.000,1.000,664.000,5.000,0
"03/11/08","02:01:12",39639.000,"cc",28355.816,6.00,6,0.100,31375.000,0.200,4168.000,0.300,1585.000,0.500,1860.000,1.000,651.000,5.000,0
"03/11/08","02:01:18",39759.000,"cc",28247.494,6.00,6,0.100,31343.000,0.200,4288.000,0.300,1613.000,0.500,1852.000,1.000,663.000,5.000,0
"03/11/08","02:01:24",40175.000,"cc",28224.395,6.00,6,0.100,31491.000,0.200,4172.000,0.300,1751.000,0.500,2035.000,1.000,726.000,5.000,0
"03/11/08","02:01:30",40433.000,"cc",28356.660,6.00,6,0.100,31823.000,0.200,4278.000,0.300,1671.000,0.500,2005.000,1.000,656.000,5.000,0
"03/11/08","02:01:36",39443.000,"cc",28337.861,6.00,6,0.100,31202.000,0.200,4135.000,0.300,1609.000,0.500,1834.000,1.000,663.000,5.000,0
"03/11/08","02:01:42",39887.000,"cc",28332.393,6.00,6,0.100,31527.000,0.200,4172.000,0.300,1594.000,0.500,1949.000,1.000,645.000,5.000,0
"03/11/08","02:01:48",38968.000,"cc",28319.156,6.00,6,0.100,31140.000,0.200,4036.000,0.300,1477.000,0.500,1742.000,1.000,573.000,5.000,0
"03/11/08","02:01:54",39361.000,"cc",28325.680,6.00,6,0.100,31077.000,0.200,4122.000,0.300,1607.000,0.500,1862.000,1.000,693.000,5.000,0
"03/11/08","02:02:00",38971.000,"cc",28319.881,6.00,6,0.100,30888.000,0.200,3968.000,0.300,1571.000,0.500,1864.000,1.000,680.000,5.000,0
"03/11/08","02:02:06",38362.000,"cc",28305.924,6.00,6,0.100,30304.000,0.200,3991.000,0.300,1547.000,0.500,1861.000,1.000,659.000,5.000,0
"03/11/08","02:02:12",37974.000,"cc",28370.986,6.00,6,0.100,29966.000,0.200,3932.000,0.300,1497.000,0.500,1890.000,1.000,689.000,5.000,0
"03/11/08","02:02:18",38047.000,"cc",28345.525,6.00,6,0.100,29902.000,0.200,4082.000,0.300,1588.000,0.500,1809.000,1.000,666.000,5.000,0
"03/11/08","02:02:24",37593.000,"cc",28327.078,6.00,6,0.100,29433.000,0.200,3956.000,0.300,1623.000,0.500,1864.000,1.000,717.000,5.000,0
"03/11/08","02:02:30",37375.000,"cc",28299.219,6.00,6,0.100,29391.000,0.200,3879.000,0.300,1559.000,0.500,1848.000,1.000,698.000,5.000,0
"03/11/08","02:02:36",37752.000,"cc",28272.787,6.00,6,0.100,29532.000,0.200,4019.000,0.300,1669.000,0.500,1854.000,1.000,678.000,5.000,0
"03/11/08","02:02:42",37456.000,"cc",28308.084,6.00,6,0.100,29268.000,0.200,3946.000,0.300,1607.000,0.500,1915.000,1.000,720.000,5.000,0
"03/11/08","02:02:48",37728.000,"cc",28329.139,6.00,6,0.100,29459.000,0.200,4025.000,0.300,1636.000,0.500,1906.000,1.000,702.000,5.000,0
"03/11/08","02:02:54",37505.000,"cc",28366.783,6.00,6,0.100,29364.000,0.200,4001.000,0.300,1599.000,0.500,1877.000,1.000,664.000,5.000,0
"03/11/08","02:03:00",37288.000,"cc",28318.584,6.00,6,0.100,29345.000,0.200,3817.000,0.300,1543.000,0.500,1886.000,1.000,697.000,5.000,0
"03/11/08","02:03:06",37503.000,"cc",28231.951,6.00,6,0.100,29122.000,0.200,3968.000,0.300,1687.000,0.500,1961.000,1.000,765.000,5.000,0
"03/11/08","02:03:12",37451.000,"cc",28412.578,6.00,6,0.100,29218.000,0.200,4068.000,0.300,1590.000,0.500,1907.000,1.000,668.000,5.000,0
"03/11/08","02:03:18",37064.000,"cc",28337.943,6.00,6,0.100,28813.000,0.200,4069.000,0.300,1650.000,0.500,1819.000,1.000,713.000,5.000,0
"03/11/08","02:03:24",36991.000,"cc",28244.248,6.00,6,0.100,29034.000,0.200,3950.000,0.300,1495.000,0.500,1828.000,1.000,684.000,5.000,0
"03/11/08","02:03:30",37020.000,"cc",28368.969,6.00,6,0.100,28873.000,0.200,3987.000,0.300,1593.000,0.500,1875.000,1.000,692.000,5.000,0
"03/11/08","02:03:36",36974.000,"cc",28274.525,6.00,6,0.100,28937.000,0.200,3951.000,0.300,1589.000,0.500,1911.000,1.000,586.000,5.000,0
"03/11/08","02:03:42",36463.000,"cc",28280.338,6.00,6,0.100,28509.000,0.200,3912.000,0.300,1584.000,0.500,1793.000,1.000,665.000,5.000,0
"03/11/08","02:03:48",36646.000,"cc",28319.682,6.00,6,0.100,28743.000,0.200,3836.000,0.300,1570.000,0.500,1810.000,1.000,687.000,5.000,0
"03/11/08","02:03:54",36793.000,"cc",28280.807,6.00,6,0.100,28755.000,0.200,3923.000,0.300,1561.000,0.500,1849.000,1.000,705.000,5.000,0
"03/11/08","02:04:00",36566.000,"cc",28352.035,6.00,6,0.100,28520.000,0.200,3949.000,0.300,1613.000,0.500,1843.000,1.000,641.000,5.000,0
"03/11/08","02:04:06",35823.000,"cc",28358.697,6.00,6,0.100,28033.000,0.200,3711.000,0.300,1567.000,0.500,1795.000,1.000,717.000,5.000,0
"03/11/08","02:04:12",35703.000,"cc",28290.879,6.00,6,0.100,27719.000,0.200,3928.000,0.300,1539.000,0.500,1813.000,1.000,704.000,5.000,0
"03/11/08","02:04:18",35786.000,"cc",28344.188,6.00,6,0.100,27814.000,0.200,3738.000,0.300,1549.000,0.500,1971.000,1.000,714.000,5.000,0
"03/11/08","02:04:24",35305.000,"cc",28298.555,6.00,6,0.100,27662.000,0.200,3690.000,0.300,1468.000,0.500,1773.000,1.000,712.000,5.000,0
"03/11/08","02:04:30",35537.000,"cc",28253.672,6.00,6,0.100,27690.000,0.200,3731.000,0.300,1559.000,0.500,1868.000,1.000,689.000,5.000,0
"03/11/08","02:04:36",35856.000,"cc",28288.719,6.00,6,0.100,27606.000,0.200,3919.000,0.300,1660.000,0.500,1945.000,1.000,726.000,5.000,0
"03/11/08","02:04:42",35859.000,"cc",28322.309,6.00,6,0.100,27867.000,0.200,3789.000,0.300,1620.000,0.500,1909.000,1.000,674.000,5.000,0
"03/11/08","02:04:48",35406.000,"cc",28350.209,6.00,6,0.100,27516.000,0.200,3780.000,0.300,1592.000,0.500,1868.000,1.000,650.000,5.000,0
"03/11/08","02:04:54",35146.000,"cc",28368.565,6.00,6,0.100,27468.000,0.200,3679.000,0.300,1488.000,0.500,1801.000,1.000,710.000,5.000,0
"03/11/08","02:05:00",35167.000,"cc",28298.617,6.00,6,0.100,27210.000,0.200,3765.000,0.300,1608.000,0.500,1896.000,1.000,688.000,5.000,0
"03/11/08","02:05:06",34659.000,"cc",28341.777,6.00,6,0.100,26926.000,0.200,3746.000,0.300,1519.000,0.500,1833.000,1.000,635.000,5.000,0
"03/11/08","02:05:12",34465.000,"cc",28285.260,6.00,6,0.100,26718.000,0.200,3722.000,0.300,1570.000,0.500,1773.000,1.000,682.000,5.000,0
"03/11/08","02:05:18",34888.000,"cc",28348.512,6.00,6,0.100,26924.000,0.200,3757.000,0.300,1601.000,0.500,1869.000,1.000,737.000,5.000,0
"03/11/08","02:05:24",34684.000,"cc",28326.881,6.00,6,0.100,26862.000,0.200,3669.000,0.300,1623.000,0.500,1811.000,1.000,719.000,5.000,0
"03/11/08","02:05:30",34117.000,"cc",28277.852,6.00,6,0.100,26369.000,0.200,3659.000,0.300,1592.000,0.500,1835.000,1.000,662.000,5.000,0
"03/11/08","02:05:36",34587.000,"cc",28278.514,6.00,6,0.100,26634.000,0.200,3844.000,0.300,1610.000,0.500,1820.000,1.000,679.000,5.000,0
"03/11/08","02:05:42",34209.000,"cc",28400.219,6.00,6,0.100,26422.000,0.200,3688.000,0.300,1609.000,0.500,1784.000,1.000,706.000,5.000,0
"03/11/08","02:05:48",33890.000,"cc",28227.559,6.00,6,0.100,26182.000,0.200,3634.000,0.300,1572.000,0.500,1795.000,1.000,707.000,5.000,0
"03/11/08","02:05:54",33861.000,"cc",28342.928,6.00,6,0.100,26469.000,0.200,3485.000,0.300,1503.000,0.500,1732.000,1.000,672.000,5.000,0
"03/11/08","02:06:00",33663.000,"cc",28294.199,6.00,6,0.100,25960.000,0.200,3619.000,0.300,1554.000,0.500,1847.000,1.000,683.000,5.000,0
"03/11/08","02:06:06",33598.000,"cc",28313.885,6.00,6,0.100,26015.000,0.200,3600.000,0.300,1496.000,0.500,1796.000,1.000,691.000,5.000,0
"03/11/08","02:06:12",33961.000,"cc",28365.346,6.00,6,0.100,26239.000,0.200,3654.000,0.300,1597.000,0.500,1789.000,1.000,682.000,5.000,0
"03/11/08","02:06:18",33626.000,"cc",28318.188,6.00,6,0.100,25864.000,0.200,3609.000,0.300,1591.000,0.500,1878.000,1.000,684.000,5.000,0
"03/11/08","02:06:24",33830.000,"cc",28312.592,6.00,6,0.100,26147.000,0.200,3684.000,0.300,1486.000,0.500,1781.000,1.000,732.000,5.000,0
"03/11/08","02:06:30",33614.000,"cc",28255.820,6.00,6,0.100,26071.000,0.200,3596.000,0.300,1468.000,0.500,1833.000,1.000,646.000,5.000,0
"03/11/08","02:06:36",33787.000,"cc",28308.426,6.00,6,0.100,26007.000,0.200,3578.000,0.300,1546.000,0.500,1869.000,1.000,787.000,5.000,0
"03/11/08","02:06:42",33316.000,"cc",28393.086,6.00,6,0.100,25840.000,0.200,3496.000,0.300,1537.000,0.500,1798.000,1.000,645.000,5.000,0
"03/11/08","02:06:48",33458.000,"cc",28283.357,6.00,6,0.100,25961.000,0.200,3561.000,0.300,1533.000,0.500,1744.000,1.000,659.000,5.000,0
"03/11/08","02:06:54",33106.000,"cc",28267.232,6.00,6,0.100,25645.000,0.200,3541.000,0.300,1535.000,0.500,1777.000,1.000,608.000,5.000,0
"03/11/08","02:07:00",32926.000,"cc",28316.748,6.00,6,0.100,25207.000,0.200,3637.000,0.300,1574.000,0.500,1814.000,1.000,694.000,5.000,0
"03/11/08","02:07:06",33095.000,"cc",28331.522,6.00,6,0.100,25701.000,0.200,3484.000,0.300,1523.000,0.500,1741.000,1.000,646.000,5.000,0
"03/11/08","02:07:12",33074.000,"cc",28387.533,6.00,6,0.100,25425.000,0.200,3599.000,0.300,1546.000,0.500,1802.000,1.000,702.000,5.000,0
"03/11/08","02:07:18",32923.000,"cc",28306.004,6.00,6,0.100,25239.000,0.200,3585.000,0.300,1673.000,0.500,1777.000,1.000,649.000,5.000,0
"03/11/08","02:07:24",32650.000,"cc",28318.350,6.00,6,0.100,24863.000,0.200,3660.000,0.300,1541.000,0.500,1869.000,1.000,717.000,5.000,0
"03/11/08","02:07:30",33313.000,"cc",28333.936,6.00,6,0.100,25496.000,0.200,3587.000,0.300,1640.000,0.500,1875.000,1.000,715.000,5.000,0
"03/11/08","02:07:36",34013.000,"cc",28287.475,6.00,6,0.100,25960.000,0.200,3710.000,0.300,1642.000,0.500,1924.000,1.000,777.000,5.000,0
"03/11/08","02:07:42",33382.000,"cc",28317.006,6.00,6,0.100,25383.000,0.200,3825.000,0.300,1509.000,0.500,1905.000,1.000,760.000,5.000,0
"03/11/08","02:07:48",33064.000,"cc",28311.043,6.00,6,0.100,25305.000,0.200,3668.000,0.300,1577.000,0.500,1821.000,1.000,693.000,5.000,0
"03/11/08","02:07:54",33128.000,"cc",28346.283,6.00,6,0.100,25184.000,0.200,3649.000,0.300,1714.000,0.500,1863.000,1.000,718.000,5.000,0
"03/11/08","02:08:00",33524.000,"cc",28316.279,6.00,6,0.100,25456.000,0.200,3864.000,0.300,1592.000,0.500,1902.000,1.000,710.000,5.000,0
"03/11/08","02:08:06",33104.000,"cc",28336.025,6.00,6,0.100,25032.000,0.200,3738.000,0.300,1644.000,0.500,1973.000,1.000,717.000,5.000,0
"03/11/08","02:08:12",32842.000,"cc",28257.246,6.00,6,0.100,25095.000,0.200,3501.000,0.300,1568.000,0.500,1926.000,1.000,752.000,5.000,0
"03/11/08","02:08:18",32679.000,"cc",28361.035,6.00,6,0.100,24853.000,0.200,3634.000,0.300,1581.000,0.500,1888.000,1.000,723.000,5.000,0
"03/11/08","02:08:24",33123.000,"cc",28286.176,6.00,6,0.100,25100.000,0.200,3710.000,0.300,1617.000,0.500,1951.000,1.000,745.000,5.000,0
"03/11/08","02:08:30",32972.000,"cc",28296.059,6.00,6,0.100,24915.000,0.200,3688.000,0.300,1705.000,0.500,1996.000,1.000,668.000,5.000,0
"03/11/08","02:08:36",32574.000,"cc",28415.877,6.00,6,0.100,24682.000,0.200,3618.000,0.300,1659.000,0.500,1938.000,1.000,677.000,5.000,0
"03/11/08","02:08:42",32807.000,"cc",28330.709,6.00,6,0.100,24965.000,0.200,3666.000,0.300,1590.000,0.500,1904.000,1.000,682.000,5.000,0
"03/11/08","02:08:48",32176.000,"cc",28240.459,6.00,6,0.100,24432.000,0.200,3602.000,0.300,1575.000,0.500,1840.000,1.000,727.000,5.000,0
"03/11/08","02:08:54",31985.000,"cc",28300.789,6.00,6,0.100,24341.000,0.200,3542.000,0.300,1551.000,0.500,1851.000,1.000,699.000,5.000,1.000
"03/11/08","02:09:00",32855.000,"cc",28281.951,6.00,6,0.100,25079.000,0.200,3664.000,0.300,1626.000,0.500,1828.000,1.000,658.000,5.000,0
"03/11/08","02:09:06",32489.000,"cc",28332.088,6.00,6,0.100,24568.000,0.200,3655.000,0.300,1647.000,0.500,1911.000,1.000,708.000,5.000,0
"03/11/08","02:09:12",32640.000,"cc",28414.715,6.00,6,0.100,24631.000,0.200,3650.000,0.300,1717.000,0.500,1933.000,1.000,709.000,5.000,0
"03/11/08","02:09:18",32153.000,"cc",28254.076,6.00,6,0.100,24551.000,0.200,3496.000,0.300,1540.000,0.500,1861.000,1.000,705.000,5.000,0
"03/11/08","02:09:24",32325.000,"cc",28309.283,6.00,6,0.100,24493.000,0.200,3623.000,0.300,1635.000,0.500,1887.000,1.000,687.000,5.000,0
"03/11/08","02:09:30",31688.000,"cc",28311.863,6.00,6,0.100,23913.000,0.200,3568.000,0.300,1576.000,0.500,1880.000,1.000,751.000,5.000,0
"03/11/08","02:09:36",32020.000,"cc",28338.686,6.00,6,0.100,24189.000,0.200,3552.000,0.300,1656.000,0.500,1921.000,1.000,702.000,5.000,0
"03/11/08","02:09:42",31793.000,"cc",28308.299,6.00,6,0.100,24155.000,0.200,3589.000,0.300,1534.000,0.500,1829.000,1.000,686.000,5.000,0
"03/11/08","02:09:48",32135.000,"cc",28319.434,6.00,6,0.100,24355.000,0.200,3559.000,0.300,1619.000,0.500,1873.000,1.000,729.000,5.000,0
"03/11/08","02:09:54",32015.000,"cc",28375.328,6.00,6,0.100,24183.000,0.200,3682.000,0.300,1569.000,0.500,1889.000,1.000,692.000,5.000,0
"03/11/08","02:10:00",31829.000,"cc",28271.543,6.00,6,0.100,24018.000,0.200,3532.000,0.300,1641.000,0.500,1939.000,1.000,699.000,5.000,0
"03/11/08","02:10:06",31702.000,"cc",28365.184,6.00,6,0.100,24143.000,0.200,3532.000,0.300,1528.000,0.500,1861.000,1.000,638.000,5.000,0
"03/11/08","02:10:12",31704.000,"cc",28317.457,6.00,6,0.100,24041.000,0.200,3557.000,0.300,1584.000,0.500,1830.000,1.000,692.000,5.000,0
"03/11/08","02:10:18",32144.000,"cc",28291.549,6.00,6,0.100,24272.000,0.200,3603.000,0.300,1696.000,0.500,1891.000,1.000,682.000,5.000,0
"03/11/08","02:10:24",32050.000,"cc",28283.795,6.00,6,0.100,24272.000,0.200,3653.000,0.300,1606.000,0.500,1846.000,1.000,673.000,5.000,0
"03/11/08","02:10:30",32113.000,"cc",28324.604,6.00,6,0.100,24208.000,0.200,3570.000,0.300,1679.000,0.500,1944.000,1.000,712.000,5.000,0
"03/11/08","02:10:36",31520.000,"cc",28356.080,6.00,6,0.100,23984.000,0.200,3398.000,0.300,1630.000,0.500,1863.000,1.000,645.000,5.000,0
"03/11/08","02:10:42",31993.000,"cc",28347.484,6.00,6,0.100,24156.000,0.200,3566.000,0.300,1624.000,0.500,1948.000,1.000,699.000,5.000,0
"03/11/08","02:10:48",31424.000,"cc",28362.211,6.00,6,0.100,23746.000,0.200,3526.000,0.300,1601.000,0.500,1880.000,1.000,671.000,5.000,0
"03/11/08","02:10:54",31574.000,"cc",28305.789,6.00,6,0.100,23952.000,0.200,3450.000,0.300,1597.000,0.500,1898.000,1.000,677.000,5.000,0
"03/11/08","02:11:00",31221.000,"cc",28289.742,6.00,6,0.100,23864.000,0.200,3489.000,0.300,1463.000,0.500,1767.000,1.000,638.000,5.000,0
"03/11/08","02:11:06",31203.000,"cc",28294.393,6.00,6,0.100,23535.000,0.200,3469.000,0.300,1533.000,0.500,1965.000,1.000,701.000,5.000,0
"03/11/08","02:11:12",31628.000,"cc",28215.397,6.00,6,0.100,23986.000,0.200,3563.000,0.300,1620.000,0.500,1798.000,1.000,661.000,5.000,0
"03/11/08","02:11:18",31246.000,"cc",28337.279,6.00,6,0.100,23613.000,0.200,3535.000,0.300,1628.000,0.500,1765.000,1.000,705.000,5.000,0
"03/11/08","02:11:24",31492.000,"cc",28355.748,6.00,6,0.100,23581.000,0.200,3600.000,0.300,1708.000,0.500,1908.000,1.000,695.000,5.000,0
"03/11/08","02:11:30",31533.000,"cc",28322.787,6.00,6,0.100,23891.000,0.200,3529.000,0.300,1617.000,0.500,1842.000,1.000,654.000,5.000,0
"03/11/08","02:11:36",31440.000,"cc",28332.311,6.00,6,0.100,23798.000,0.200,3444.000,0.300,1585.000,0.500,1893.000,1.000,720.000,5.000,0
"03/11/08","02:11:42",31612.000,"cc",28271.293,6.00,6,0.100,23744.000,0.200,3613.000,0.300,1583.000,0.500,1932.000,1.000,740.000,5.000,0
"03/11/08","02:11:48",31685.000,"cc",28289.424,6.00,6,0.100,23922.000,0.200,3590.000,0.300,1587.000,0.500,1870.000,1.000,716.000,5.000,0
"03/11/08","02:11:54",31039.000,"cc",28352.723,6.00,6,0.100,23636.000,0.200,3407.000,0.300,1519.000,0.500,1822.000,1.000,655.000,5.000,0
"03/11/08","02:12:00",31204.000,"cc",28308.955,6.00,6,0.100,23644.000,0.200,3443.000,0.300,1568.000,0.500,1822.000,1.000,727.000,5.000,0
"03/11/08","02:12:06",31578.000,"cc",28349.447,6.00,6,0.100,23827.000,0.200,3535.000,0.300,1603.000,0.500,1864.000,1.000,749.000,5.000,0
"03/11/08","02:12:12",31210.000,"cc",28332.020,6.00,6,0.100,23475.000,0.200,3435.000,0.300,1622.000,0.500,1948.000,1.000,730.000,5.000,0
"03/11/08","02:12:18",31385.000,"cc",28289.254,6.00,6,0.100,23601.000,0.200,3591.000,0.300,1619.000,0.500,1916.000,1.000,658.000,5.000,0
"03/11/08","02:12:24",31056.000,"cc",28283.590,6.00,6,0.100,23547.000,0.200,3400.000,0.300,1647.000,0.500,1815.000,1.000,647.000,5.000,0
"03/11/08","02:12:30",31424.000,"cc",28268.656,6.00,6,0.100,23476.000,0.200,3610.000,0.300,1746.000,0.500,1900.000,1.000,692.000,5.000,0
"03/11/08","02:12:36",31533.000,"cc",28330.272,6.00,6,0.100,23679.000,0.200,3609.000,0.300,1657.000,0.500,1851.000,1.000,737.000,5.000,0
"03/11/08","02:12:42",31165.000,"cc",28295.088,6.00,6,0.100,23437.000,0.200,3481.000,0.300,1650.000,0.500,1919.000,1.000,678.000,5.000,0
"03/11/08","02:12:48",31491.000,"cc",28346.703,6.00,6,0.100,23606.000,0.200,3607.000,0.300,1586.000,0.500,1954.000,1.000,738.000,5.000,0
"03/11/08","02:12:54",31226.000,"cc",28351.699,6.00,6,0.100,23521.000,0.200,3445.000,0.300,1624.000,0.500,1923.000,1.000,713.000,5.000,0
"03/11/08","02:13:00",30622.000,"cc",28288.619,6.00,6,0.100,22979.000,0.200,3507.000,0.300,1588.000,0.500,1829.000,1.000,719.000,5.000,0
"03/11/08","02:13:06",30861.000,"cc",28390.791,6.00,6,0.100,23321.000,0.200,3429.000,0.300,1554.000,0.500,1849.000,1.000,708.000,5.000,0
"03/11/08","02:13:12",31271.000,"cc",28204.785,6.00,6,0.100,23502.000,0.200,3646.000,0.300,1551.000,0.500,1852.000,1.000,720.000,5.000,0
"03/11/08","02:13:18",31508.000,"cc",28321.977,6.00,6,0.100,23652.000,0.200,3666.000,0.300,1633.000,0.500,1879.000,1.000,678.000,5.000,0
"03/11/08","02:13:24",30923.000,"cc",28307.234,6.00,6,0.100,23324.000,0.200,3453.000,0.300,1545.000,0.500,1911.000,1.000,690.000,5.000,0
"03/11/08","02:13:30",31116.000,"cc",28321.316,6.00,6,0.100,23438.000,0.200,3512.000,0.300,1629.000,0.500,1860.000,1.000,677.000,5.000,0
"03/11/08","02:13:36",30932.000,"cc",28331.031,6.00,6,0.100,23359.000,0.200,3440.000,0.300,1604.000,0.500,1830.000,1.000,699.000,5.000,0
"03/11/08","02:13:42",30451.000,"cc",28390.176,6.00,6,0.100,23025.000,0.200,3420.000,0.300,1505.000,0.500,1801.000,1.000,700.000,5.000,0
"03/11/08","02:13:48",30541.000,"cc",28318.084,6.00,6,0.100,23199.000,0.200,3336.000,0.300,1520.000,0.500,1784.000,1.000,702.000,5.000,0
"03/11/08","02:13:54",30186.000,"cc",28304.863,6.00,6,0.100,22824.000,0.200,3388.000,0.300,1486.000,0.500,1785.000,1.000,703.000,5.000,0
"03/11/08","02:14:00",30166.000,"cc",28261.590,6.00,6,0.100,22798.000,0.200,3264.000,0.300,1523.000,0.500,1855.000,1.000,726.000,5.000,0
"03/11/08","02:14:06",30508.000,"cc",28324.596,6.00,6,0.100,23109.000,0.200,3369.000,0.300,1516.000,0.500,1804.000,1.000,710.000,5.000,0
"03/11/08","02:14:12",30785.000,"cc",28348.768,6.00,6,0.100,23138.000,0.200,3495.000,0.300,1632.000,0.500,1795.000,1.000,725.000,5.000,0
"03/11/08","02:14:18",30679.000,"cc",28314.906,6.00,6,0.100,23166.000,0.200,3426.000,0.300,1547.000,0.500,1863.000,1.000,677.000,5.000,0
"03/11/08","02:14:24",30540.000,"cc",28276.557,6.00,6,0.100,23053.000,0.200,3369.000,0.300,1558.000,0.500,1897.000,1.000,663.000,5.000,0
"03/11/08","02:14:30",30507.000,"cc",28378.344,6.00,6,0.100,22876.000,0.200,3513.000,0.300,1588.000,0.500,1861.000,1.000,669.000,5.000,0
"03/11/08","02:14:36",30136.000,"cc",28308.813,6.00,6,0.100,22678.000,0.200,3392.000,0.300,1517.000,0.500,1856.000,1.000,693.000,5.000,0
"03/11/08","02:14:42",30435.000,"cc",28265.758,6.00,6,0.100,23079.000,0.200,3272.000,0.300,1539.000,0.500,1853.000,1.000,692.000,5.000,0
"03/11/08","02:14:48",30405.000,"cc",28320.426,6.00,6,0.100,22954.000,0.200,3316.000,0.300,1579.000,0.500,1850.000,1.000,706.000,5.000,0
"03/11/08","02:14:54",30010.000,"cc",28490.592,6.00,6,0.100,22709.000,0.200,3250.000,0.300,1614.000,0.500,1789.000,1.000,648.000,5.000,0
"03/11/08","02:15:00",30206.000,"cc",28257.813,6.00,6,0.100,22853.000,0.200,3386.000,0.300,1475.000,0.500,1800.000,1.000,692.000,5.000,0
"03/11/08","02:15:06",30141.000,"cc",28206.766,6.00,6,0.100,22997.000,0.200,3259.000,0.300,1487.000,0.500,1739.000,1.000,659.000,5.000,0
"03/11/08","02:15:12",30736.000,"cc",28369.129,6.00,6,0.100,23068.000,0.200,3625.000,0.300,1605.000,0.500,1820.000,1.000,618.000,5.000,0
"03/11/08","02:15:18",30789.000,"cc",28404.414,6.00,6,0.100,23038.000,0.200,3493.000,0.300,1614.000,0.500,1939.000,1.000,705.000,5.000,0
"03/11/08","02:15:24",30647.000,"cc",28292.969,6.00,6,0.100,22985.000,0.200,3536.000,0.300,1591.000,0.500,1826.000,1.000,709.000,5.000,0
"03/11/08","02:15:30",30534.000,"cc",28249.121,6.00,6,0.100,22994.000,0.200,3405.000,0.300,1528.000,0.500,1947.000,1.000,660.000,5.000,0
"03/11/08","02:15:36",30177.000,"cc",28324.897,6.00,6,0.100,22717.000,0.200,3348.000,0.300,1519.000,0.500,1915.000,1.000,678.000,5.000,0
"03/11/08","02:15:42",30352.000,"cc",28288.002,6.00,6,0.100,22786.000,0.200,3502.000,0.300,1568.000,0.500,1822.000,1.000,674.000,5.000,0
"03/11/08","02:15:48",30498.000,"cc",28294.041,6.00,6,0.100,22616.000,0.200,3546.000,0.300,1724.000,0.500,1917.000,1.000,695.000,5.000,0
"03/11/08","02:15:54",30641.000,"cc",28338.141,6.00,6,0.100,22887.000,0.200,3460.000,0.300,1659.000,0.500,1952.000,1.000,683.000,5.000,0
"03/11/08","02:16:00",30207.000,"cc",28302.065,6.00,6,0.100,22974.000,0.200,3231.000,0.300,1571.000,0.500,1812.000,1.000,619.000,5.000,0
"03/11/08","02:16:06",30291.000,"cc",28347.557,6.00,6,0.100,22759.000,0.200,3351.000,0.300,1629.000,0.500,1882.000,1.000,670.000,5.000,0
"03/11/08","02:16:12",29901.000,"cc",28328.865,6.00,6,0.100,22417.000,0.200,3324.000,0.300,1541.000,0.500,1949.000,1.000,670.000,5.000,0
"03/11/08","02:16:18",30197.000,"cc",28336.625,6.00,6,0.100,22765.000,0.200,3340.000,0.300,1566.000,0.500,1887.000,1.000,639.000,5.000,0